Arlington, WA

5:35 PM PDT on March 30, 2017 (GMT -0700)
Arlington Municipal

Weather History for KAWO - February, 2013

Change the Weather History Date:

Thursday, February 7, 2013

  Actual Average Record
Temperature  
Mean Temperature 38 °F -  
Max Temperature 46 °F 57 °F 62 °F (1998)
Min Temperature 28 °F 31 °F 17 °F (2001)
Degree Days  
Heating Degree Days 27    
Moisture  
Dew Point 34 °F    
Average Humidity 78    
Maximum Humidity 93    
Minimum Humidity 57    
Precipitation  
Precipitation 0.09 in - - ()
Sea Level Pressure  
Sea Level Pressure 30.02 in    
Wind  
Wind Speed 11 mph (SE)    
Max Wind Speed 20 mph    
Max Gust Speed 25 mph    
Visibility 10 miles    
Events      
Averages and records for this station are not official NWS values.
T = Trace of Precipitation, MM = Missing Value Source: NWS Daily Summary

Daily Weather History Graph

Daily Weather History Graph

Search for Another Location

Airport or City:

Trip Planner

Search our weather history database for the weather conditions in past years. The results will help you decide how hot, cold, wet, or windy it might be!

Date:

Astronomy

Feb. 07, 2013 Rise Set
Actual Time 7:27 AM PST 5:18 PM PST
Civil Twilight 6:54 AM PST 5:51 PM PST
Nautical Twilight 6:18 AM PST 6:28 PM PST
Astronomical Twilight 5:41 AM PST 7:04 PM PST
Moon 5:19 AM PST (2/7) 2:43 PM PST (2/7)
Length of Visible Light 10h 56m
Length of Day
9h 51m
Waning Crescent, 8% of the Moon is Illuminated
Feb 7
Waning Crescent
Feb 9
New
Feb 17
First Quarter
Feb 25
Full
Mar 4
Last Quarter

Hourly Weather History & Observations

Time (PST) Temp. Windchill Dew Point Humidity Pressure Visibility Wind Dir Wind Speed Gust Speed Precip Events Conditions
12:15 AM 46.4 °F 41.5 °F 37.4 °F 71% 29.81 in 10.0 mi SE 10.4 mph 19.6 mph N/A   Overcast
12:35 AM 46.4 °F 40.1 °F 37.4 °F 71% 29.82 in 10.0 mi SE 15.0 mph - N/A   Overcast
12:55 AM 46.4 °F 39.8 °F 37.4 °F 71% 29.82 in 10.0 mi SE 16.1 mph 21.9 mph N/A   Overcast
1:15 AM 44.6 °F 39.2 °F 37.4 °F 76% 29.82 in 10.0 mi SE 10.4 mph - N/A   Overcast
1:35 AM 44.6 °F 38.8 °F 37.4 °F 76% 29.82 in 10.0 mi SE 11.5 mph - N/A   Overcast
1:55 AM 44.6 °F 38.8 °F 37.4 °F 76% 29.85 in 9.0 mi South 11.5 mph 16.1 mph 0.03 in   Overcast
2:15 AM 42.8 °F 35.1 °F 37.4 °F 81% 29.87 in 9.0 mi South 16.1 mph 20.7 mph 0.03 in   Overcast
2:35 AM 42.8 °F 35.1 °F 37.4 °F 81% 29.87 in 10.0 mi SSE 16.1 mph 25.3 mph 0.06 in   Overcast
2:55 AM 41.0 °F 33.1 °F 37.4 °F 87% 29.87 in 10.0 mi SSE 15.0 mph 20.7 mph 0.06 in   Overcast
3:15 AM 41.0 °F 33.5 °F 37.4 °F 87% 29.87 in 10.0 mi SSE 13.8 mph - N/A   Overcast
3:35 AM 42.8 °F 35.4 °F 37.4 °F 81% 29.88 in 10.0 mi SE 15.0 mph - N/A   Overcast
3:55 AM 42.8 °F 34.3 °F 37.4 °F 81% 29.89 in 10.0 mi SE 19.6 mph 25.3 mph N/A   Overcast
4:15 AM 42.8 °F 34.8 °F 37.4 °F 81% 29.89 in 10.0 mi SE 17.3 mph 23.0 mph N/A   Overcast
4:35 AM 41.0 °F 32.2 °F 37.4 °F 87% 29.90 in 10.0 mi SE 18.4 mph 23.0 mph N/A   Overcast
4:55 AM 42.8 °F 34.8 °F 37.4 °F 81% 29.91 in 10.0 mi SE 17.3 mph 23.0 mph N/A   Overcast
5:15 AM 42.8 °F 35.1 °F 35.6 °F 76% 29.93 in 10.0 mi SE 16.1 mph 21.9 mph N/A   Overcast
5:35 AM 42.8 °F 35.8 °F 35.6 °F 76% 29.93 in 10.0 mi SSE 13.8 mph 24.2 mph N/A   Overcast
5:55 AM 42.8 °F 35.8 °F 35.6 °F 76% 29.94 in 10.0 mi SE 13.8 mph 21.9 mph N/A   Overcast
6:15 AM 42.8 °F 35.8 °F 35.6 °F 76% 29.95 in 10.0 mi SSE 13.8 mph - N/A   Overcast
6:35 AM 41.0 °F 33.1 °F 35.6 °F 81% 29.95 in 10.0 mi SE 15.0 mph 18.4 mph N/A   Overcast
6:55 AM 41.0 °F 33.5 °F 35.6 °F 81% 29.95 in 10.0 mi SE 13.8 mph 20.7 mph N/A   Overcast
7:15 AM 41.0 °F 34.7 °F 35.6 °F 81% 29.97 in 10.0 mi SSE 10.4 mph - N/A   Overcast
7:35 AM 41.0 °F 34.3 °F 35.6 °F 81% 29.97 in 10.0 mi SE 11.5 mph - N/A   Overcast
7:55 AM 42.8 °F 36.2 °F 35.6 °F 76% 29.99 in 10.0 mi SE 12.7 mph - N/A   Overcast
8:15 AM 42.8 °F 37.0 °F 35.6 °F 76% 30.00 in 10.0 mi SE 10.4 mph - N/A   Overcast
8:35 AM 42.8 °F 35.8 °F 35.6 °F 76% 30.01 in 10.0 mi SE 13.8 mph - N/A   Overcast
8:55 AM 42.8 °F 35.4 °F 35.6 °F 76% 30.01 in 10.0 mi SE 15.0 mph - N/A   Overcast
9:15 AM 42.8 °F 36.2 °F 35.6 °F 76% 30.01 in 10.0 mi SSE 12.7 mph - N/A   Overcast
9:35 AM 44.6 °F 38.1 °F 35.6 °F 71% 30.02 in 10.0 mi SE 13.8 mph - N/A   Overcast
9:55 AM 44.6 °F 39.2 °F 37.4 °F 76% 30.02 in 10.0 mi SE 10.4 mph - N/A   Overcast
10:15 AM 44.6 °F 38.4 °F 35.6 °F 71% 30.04 in 10.0 mi SSE 12.7 mph - N/A   Overcast
10:35 AM 44.6 °F 37.8 °F 33.8 °F 66% 30.04 in 10.0 mi SSE 15.0 mph - N/A   Overcast
10:55 AM 44.6 °F 37.4 °F 33.8 °F 66% 30.04 in 10.0 mi SSE 16.1 mph - N/A   Overcast
11:15 AM 44.6 °F 39.2 °F 33.8 °F 66% 30.05 in 10.0 mi SSE 10.4 mph - N/A   Overcast
11:35 AM 44.6 °F 39.2 °F 33.8 °F 66% 30.05 in 10.0 mi SSE 10.4 mph - N/A   Overcast
11:55 AM 44.6 °F 39.7 °F 35.6 °F 71% 30.05 in 10.0 mi SSE 9.2 mph - N/A   Overcast
12:15 PM 44.6 °F 42.2 °F 35.6 °F 71% 30.05 in 10.0 mi South 4.6 mph - N/A   Mostly Cloudy
12:35 PM 42.8 °F 40.1 °F 35.6 °F 76% 30.06 in 5.0 mi SW 4.6 mph - N/A   Overcast
12:55 PM 42.8 °F 37.5 °F 37.4 °F 81% 30.05 in 9.0 mi SSE 9.2 mph - N/A   Overcast
1:15 PM 44.6 °F 41.4 °F 39.2 °F 81% 30.05 in 10.0 mi ESE 5.8 mph - N/A   Mostly Cloudy
1:35 PM 46.4 °F 44.3 °F 37.4 °F 71% 30.05 in 10.0 mi SE 4.6 mph - N/A   Scattered Clouds
1:55 PM 46.4 °F 41.9 °F 37.4 °F 71% 30.04 in 10.0 mi SE 9.2 mph - N/A   Partly Cloudy
2:15 PM 46.4 °F 44.3 °F 35.6 °F 66% 30.05 in 10.0 mi SSW 4.6 mph - N/A   Mostly Cloudy
2:35 PM 44.6 °F 40.7 °F 33.8 °F 66% 30.05 in 10.0 mi SSE 6.9 mph - N/A   Mostly Cloudy
2:55 PM 46.4 °F 42.4 °F 33.8 °F 62% 30.05 in 10.0 mi SSE 8.1 mph - N/A   Overcast
3:15 PM 46.4 °F - 32.0 °F 57% 30.06 in 10.0 mi Calm Calm - N/A   Overcast
3:35 PM 46.4 °F 45.2 °F 33.8 °F 62% 30.06 in 10.0 mi North 3.5 mph - N/A   Overcast
3:55 PM 46.4 °F - 35.6 °F 66% 30.06 in 10.0 mi Calm Calm - N/A   Overcast
4:15 PM 46.4 °F 44.3 °F 37.4 °F 71% 30.07 in 10.0 mi NE 4.6 mph - N/A   Mostly Cloudy
4:35 PM 44.6 °F 42.2 °F 35.6 °F 71% 30.07 in 10.0 mi NNE 4.6 mph - N/A   Mostly Cloudy
4:55 PM 44.6 °F 43.1 °F 35.6 °F 71% 30.08 in 10.0 mi NNE 3.5 mph - N/A   Scattered Clouds
5:15 PM 39.2 °F 35.9 °F 33.8 °F 81% 30.09 in 10.0 mi North 4.6 mph - N/A   Scattered Clouds
5:35 PM 39.2 °F 37.0 °F 33.8 °F 81% 30.09 in 10.0 mi North 3.5 mph - N/A   Partly Cloudy
5:55 PM 39.2 °F - 33.8 °F 81% 30.10 in 10.0 mi Calm Calm - N/A   Partly Cloudy
6:15 PM 37.4 °F - 33.8 °F 87% 30.11 in 10.0 mi Calm Calm - N/A   Clear
6:35 PM 35.6 °F 32.8 °F 30.2 °F 81% 30.11 in 10.0 mi North 3.5 mph - N/A   Clear
6:55 PM 35.6 °F 32.8 °F 33.8 °F 93% 30.12 in 10.0 mi North 3.5 mph - N/A   Clear
7:15 PM 33.8 °F 29.6 °F 28.4 °F 81% 30.13 in 10.0 mi North 4.6 mph - N/A   Clear
7:35 PM 33.8 °F - 30.2 °F 87% 30.13 in 10.0 mi Calm Calm - N/A   Clear
7:55 PM 33.8 °F 29.6 °F 30.2 °F 87% 30.14 in 10.0 mi North 4.6 mph - N/A   Clear
8:15 PM 33.8 °F 28.6 °F 30.2 °F 87% 30.15 in 10.0 mi North 5.8 mph - N/A   Clear
8:35 PM 33.8 °F 29.6 °F 30.2 °F 87% 30.15 in 10.0 mi NNE 4.6 mph - N/A   Clear
8:55 PM 30.2 °F 26.7 °F 28.4 °F 93% 30.16 in 10.0 mi North 3.5 mph - N/A   Clear
9:15 PM 33.8 °F 30.8 °F 30.2 °F 87% 30.17 in 10.0 mi NNE 3.5 mph - N/A   Clear
9:35 PM 32.0 °F - 30.2 °F 93% 30.17 in 10.0 mi Calm Calm - N/A   Clear
9:55 PM 32.0 °F - 30.2 °F 93% 30.18 in 10.0 mi Calm Calm - N/A   Clear
10:15 PM 30.2 °F - 28.4 °F 93% 30.19 in 10.0 mi Calm Calm - N/A   Clear
10:55 PM 30.2 °F - 28.4 °F 93% 30.20 in 10.0 mi Calm Calm - N/A   Clear
11:15 PM 30.2 °F - 28.4 °F 93% 30.21 in 10.0 mi Calm Calm - N/A   Partly Cloudy
11:35 PM 30.2 °F - 28.4 °F 93% 30.21 in 4.0 mi Calm Calm - N/A   Partly Cloudy
11:55 PM 28.4 °F - 26.6 °F 93% 30.21 in 4.0 mi Calm Calm - N/A   Clear